K5SVV Weather Reports


Display with metric or nautical units.
time (UTC)temp
F
wind
direction
speed
MPH
gust
MPH
rain 1hr
in
rain 24hr
in
rain mn
in
humidity
%
barometer
mb
20260504182042 77 194 10.0 13.0 0.00 0.00 0.00 65 1010.5
20260504181539 77 194 11.0 15.0 0.00 0.00 0.00 65 1010.8
20260504181037 76 188 6.0 8.0 0.00 0.00 0.00 68 1010.7
20260504180536 76 211 16.0 18.0 0.00 0.00 0.00 65 1010.8
20260504180034 76 208 11.0 15.0 0.00 0.00 0.00 66 1010.9
20260504175531 76 211 11.0 15.0 0.00 0.00 0.00 65 1011.0
20260504175028 76 195 11.0 15.0 0.00 0.00 0.00 67 1011.0
20260504174526 75 186 6.0 11.0 0.00 0.00 0.00 67 1011.0
20260504174023 75 197 11.0 14.0 0.00 0.00 0.00 67 1011.1
20260504173519 75 184 10.0 13.0 0.00 0.00 0.00 66 1011.2
20260504173017 75 192 14.0 15.0 0.00 0.00 0.00 66 1011.0
20260504172513 75 194 5.0 8.0 0.00 0.00 0.00 68 1011.3
20260504172009 75 192 8.0 10.0 0.00 0.00 0.00 66 1011.4
20260504171507 74 161 7.0 10.0 0.00 0.00 0.00 66 1011.5
20260504171003 74 199 6.0 10.0 0.00 0.00 0.00 67 1011.7
20260504170500 74 147 6.0 10.0 0.00 0.00 0.00 65 1011.7
20260504160420 71 177 14.0 18.0 0.00 0.00 0.00 67 1012.4
20260504150843 69 210 9.0 16.0 0.00 0.00 0.00 72 1013.0
20260504150340 69 198 15.0 17.0 0.00 0.00 0.00 72 1012.9
20260504141310 67 194 9.0 11.0 0.00 0.00 0.00 75 1013.0
20260504140806 66 175 10.0 13.0 0.00 0.00 0.00 75 1013.2
20260504140302 66 186 9.0 13.0 0.00 0.00 0.00 76 1013.2
20260504130731 63 192 3.0 6.0 0.00 0.00 0.00 80 1013.0
20260504130227 62 184 6.0 7.0 0.00 0.00 0.00 80 1012.9
20260504120151 60 186 5.0 6.0 0.00 0.00 0.00 84 1012.3
20260504110618 59 185 5.0 7.0 0.00 0.00 0.00 85 1012.7
20260504110114 59 190 7.0 8.0 0.00 0.00 0.00 86 1012.4
20260504100540 60 195 5.0 7.0 0.00 0.00 0.00 82 1013.1
20260504081933 62 184 6.0 8.0 0.00 0.00 0.00 77 1013.5
20260504081430 62 199 9.0 11.0 0.00 0.00 0.00 77 1013.5
20260504080926 62 171 5.0 7.0 0.00 0.00 0.00 76 1013.8
20260504080423 62 194 6.0 7.0 0.00 0.00 0.00 76 1013.8
20260504070351 63 197 8.0 9.0 0.00 0.00 0.00 70 1014.2
20260504050738 65 178 4.0 6.0 0.00 0.00 0.00 66 1015.4
20260504050236 65 205 4.0 6.0 0.00 0.00 0.00 66 1015.3
20260504045733 65 196 5.0 7.0 0.00 0.00 0.00 66 1015.3
20260504045227 65 190 6.0 8.0 0.00 0.00 0.00 66 1015.5
20260504044726 65 181 2.0 2.0 0.00 0.00 0.00 66 1015.5
20260504044223 65 198 4.0 7.0 0.00 0.00 0.00 66 1015.5
20260504043720 65 186 5.0 7.0 0.00 0.00 0.00 66 1015.4
20260504043216 65 190 4.0 4.0 0.00 0.00 0.00 65 1015.6
20260504042714 65 190 0.0 0.0 0.00 0.00 0.00 66 1015.6
20260504042210 65 172 4.0 4.0 0.00 0.00 0.00 66 1015.7
20260504041707 65 193 5.0 7.0 0.00 0.00 0.00 66 1015.7
20260504041202 65 190 5.0 6.0 0.00 0.00 0.00 66 1015.6
20260504040659 65 171 4.0 4.0 0.00 0.00 0.00 65 1015.6
20260504040156 66 200 2.0 2.0 0.00 0.00 0.00 65 1015.7
20260504035653 66 180 3.0 6.0 0.00 0.00 0.00 65 1015.8
20260504035150 66 175 4.0 6.0 0.00 0.00 0.00 65 1015.5
20260504034647 66 175 0.0 0.0 0.00 0.00 0.00 65 1015.7
20260504034144 66 150 2.0 2.0 0.00 0.00 0.00 65 1015.6
20260504033642 66 195 0.0 0.0 0.00 0.00 0.00 65 1015.6
20260504033139 66 176 4.0 6.0 0.00 0.00 0.00 64 1015.7
20260504032636 66 159 1.0 3.0 0.00 0.00 0.00 63 1015.6
20260504032133 66 175 3.0 3.0 0.00 0.00 0.00 63 1015.8
20260504031630 66 189 3.0 6.0 0.00 0.00 0.00 62 1015.5
20260504031126 66 193 5.0 6.0 0.00 0.00 0.00 62 1015.7
20260504030623 67 158 3.0 3.0 0.00 0.00 0.00 61 1015.6
20260504030120 67 189 4.0 4.0 0.00 0.00 0.00 61 1015.3
20260504025617 67 198 0.0 0.0 0.00 0.00 0.00 60 1015.5
20260504025114 67 153 4.0 6.0 0.00 0.00 0.00 60 1015.4
20260504024611 67 176 1.0 4.0 0.00 0.00 0.00 59 1015.5
20260504024107 68 193 4.0 6.0 0.00 0.00 0.00 59 1015.6
20260504023604 68 186 4.0 6.0 0.00 0.00 0.00 59 1015.5
20260504023100 68 208 4.0 6.0 0.00 0.00 0.00 58 1015.2
20260504022556 68 201 1.0 3.0 0.00 0.00 0.00 59 1015.5
20260504022052 68 206 4.0 4.0 0.00 0.00 0.00 58 1015.3
20260504021550 68 177 5.0 7.0 0.00 0.00 0.00 58 1015.4
20260504021047 68 204 5.0 6.0 0.00 0.00 0.00 58 1015.3
20260504020544 68 196 1.0 2.0 0.00 0.00 0.00 58 1015.6
20260504020040 69 181 3.0 3.0 0.00 0.00 0.00 58 1015.4
20260504015537 69 188 0.0 0.0 0.00 0.00 0.00 58 1015.5
20260504015032 69 189 0.0 2.0 0.00 0.00 0.00 58 1015.3
20260504014529 69 186 3.0 4.0 0.00 0.00 0.00 57 1015.4
20260504014026 69 162 0.0 1.0 0.00 0.00 0.00 57 1015.2
20260504013524 69 185 0.0 0.0 0.00 0.00 0.00 56 1015.1
20260504013021 70 159 1.0 3.0 0.00 0.00 0.00 56 1015.1
20260504012518 70 201 2.0 3.0 0.00 0.00 0.00 56 1015.0
20260504012016 70 186 0.0 0.0 0.00 0.00 0.00 55 1015.1
20260504011512 70 183 2.0 3.0 0.00 0.00 0.00 54 1015.5
20260504011008 71 169 1.0 2.0 0.00 0.00 0.00 54 1015.2
20260504010504 71 174 0.0 0.0 0.00 0.00 0.00 53 1015.3
20260504010000 71 199 4.0 6.0 0.00 0.00 0.00 52 1015.3
20260504005457 72 177 3.0 4.0 0.00 0.00 0.00 51 1015.3
20260504004955 72 194 2.0 2.0 0.00 0.00 0.00 52 1015.1
20260504004452 73 199 4.0 6.0 0.00 0.00 0.00 50 1015.3
20260504003949 73 192 0.0 0.0 0.00 0.00 0.00 51 1015.3
20260504003445 73 184 3.0 3.0 0.00 0.00 0.00 49 1015.2
20260504002942 74 181 4.0 6.0 0.00 0.00 0.00 49 1015.2
20260504002439 74 195 5.0 7.0 0.00 0.00 0.00 48 1015.2
20260504001937 74 193 2.0 6.0 0.00 0.00 0.00 48 1015.5
20260504001434 75 172 3.0 3.0 0.00 0.00 0.00 46 1015.4
20260504000930 75 166 5.0 7.0 0.00 0.00 0.00 46 1015.3
20260504000427 75 178 5.0 8.0 0.00 0.00 0.00 45 1015.4
20260503235925 76 191 5.0 9.0 0.00 0.00 0.00 45 1015.4
20260503235422 76 198 6.0 8.0 0.00 0.00 0.00 44 1015.3
20260503234920 76 182 6.0 8.0 0.00 0.00 0.00 44 1015.2
20260503234417 77 189 4.0 4.0 0.00 0.00 0.00 44 1015.4
20260503233915 77 169 6.0 9.0 0.00 0.00 0.00 43 1015.5
20260503233411 77 153 3.0 6.0 0.00 0.00 0.00 44 1015.5
20260503232908 77 169 6.0 8.0 0.00 0.00 0.00 44 1015.7
20260503232405 77 167 7.0 9.0 0.00 0.00 0.00 41 1015.6
20260503231903 78 188 8.0 9.0 0.00 0.00 0.00 40 1015.8
20260503231400 78 199 5.0 6.0 0.00 0.00 0.00 40 1015.8
20260503230856 78 220 7.0 9.0 0.00 0.00 0.00 38 1015.9
20260503230352 78 198 6.0 7.0 0.00 0.00 0.00 38 1015.8
20260503225850 78 208 6.0 7.0 0.00 0.00 0.00 39 1015.7
20260503225346 78 181 6.0 8.0 0.00 0.00 0.00 38 1015.8
20260503224843 78 197 6.0 7.0 0.00 0.00 0.00 39 1015.8
20260503224340 79 187 9.0 10.0 0.00 0.00 0.00 38 1015.7
20260503223838 78 181 2.0 6.0 0.00 0.00 0.00 39 1015.8
20260503223335 78 180 6.0 9.0 0.00 0.00 0.00 38 1015.8
20260503222830 78 165 9.0 10.0 0.00 0.00 0.00 38 1015.9
20260503222329 78 186 13.0 16.0 0.00 0.00 0.00 38 1015.9
20260503221827 78 191 6.0 7.0 0.00 0.00 0.00 41 1016.0
20260503221325 78 202 9.0 11.0 0.00 0.00 0.00 39 1016.1
20260503220815 78 195 3.0 4.0 0.00 0.00 0.00 39 1016.1
20260503220312 79 190 9.0 11.0 0.00 0.00 0.00 40 1016.3
20260503215809 79 209 8.0 11.0 0.00 0.00 0.00 40 1016.1
20260503215306 79 222 5.0 8.0 0.00 0.00 0.00 41 1016.3
20260503214804 80 222 4.0 7.0 0.00 0.00 0.00 43 1016.3
20260503214301 79 247 1.0 2.0 0.00 0.00 0.00 41 1016.3
20260503213758 79 228 6.0 7.0 0.00 0.00 0.00 39 1016.5
20260503213255 79 214 10.0 11.0 0.00 0.00 0.00 39 1016.6
20260503212752 79 201 10.0 13.0 0.00 0.00 0.00 41 1016.4
20260503212250 78 175 5.0 9.0 0.00 0.00 0.00 43 1016.6
20260503211747 79 198 5.0 6.0 0.00 0.00 0.00 40 1016.7
20260503211243 80 203 4.0 4.0 0.00 0.00 0.00 43 1016.8
20260503210739 79 158 3.0 4.0 0.00 0.00 0.00 41 1016.8
20260503210237 79 166 5.0 7.0 0.00 0.00 0.00 41 1016.6
20260503205732 79 170 5.0 7.0 0.00 0.00 0.00 41 1017.1
20260503205228 79 184 7.0 9.0 0.00 0.00 0.00 42 1017.2
20260503204725 79 176 7.0 8.0 0.00 0.00 0.00 42 1017.0
20260503204223 79 181 6.0 9.0 0.00 0.00 0.00 43 1017.5
20260503203720 79 230 4.0 7.0 0.00 0.00 0.00 41 1017.4
20260503203217 79 274 4.0 6.0 0.00 0.00 0.00 41 1017.5
20260503202714 79 201 6.0 7.0 0.00 0.00 0.00 38 1017.6
20260503202212 79 173 4.0 6.0 0.00 0.00 0.00 41 1017.8
20260503201710 79 171 5.0 8.0 0.00 0.00 0.00 41 1017.9
20260503201207 78 182 5.0 7.0 0.00 0.00 0.00 42 1018.1
20260503200703 78 193 2.0 8.0 0.00 0.00 0.00 44 1017.7
20260503200200 79 180 9.0 10.0 0.00 0.00 0.00 43 1018.1
20260503195656 79 146 8.0 11.0 0.00 0.00 0.00 39 1017.9
20260503195154 79 187 6.0 7.0 0.00 0.00 0.00 42 1018.1
20260503194650 78 169 5.0 8.0 0.00 0.00 0.00 45 1017.9
20260503194146 78 200 6.0 7.0 0.00 0.00 0.00 43 1018.5
20260503193643 78 193 7.0 9.0 0.00 0.00 0.00 38 1018.2
20260503193138 78 227 6.0 9.0 0.00 0.00 0.00 44 1018.5
20260503192634 78 201 7.0 8.0 0.00 0.00 0.00 42 1018.6
20260503192130 78 141 8.0 10.0 0.00 0.00 0.00 41 1018.5
20260503191627 78 225 4.0 9.0 0.00 0.00 0.00 46 1019.0
20260503191124 78 204 3.0 3.0 0.00 0.00 0.00 47 1019.1
20260503190621 78 197 9.0 10.0 0.00 0.00 0.00 47 1019.0
20260503190118 78 224 9.0 13.0 0.00 0.00 0.00 46 1019.1
20260503185614 78 201 8.0 10.0 0.00 0.00 0.00 45 1019.3
20260503185109 78 170 5.0 7.0 0.00 0.00 0.00 48 1019.1
20260503184604 77 179 2.0 3.0 0.00 0.00 0.00 48 1019.0
20260503184101 78 205 8.0 13.0 0.00 0.00 0.00 44 1019.3
20260503183557 77 230 2.0 3.0 0.00 0.00 0.00 49 1019.3
20260503183055 77 197 4.0 4.0 0.00 0.00 0.00 47 1019.6
20260503182553 77 200 6.0 8.0 0.00 0.00 0.00 45 1019.4